Volver al catálogo

ATLAS 41E DEB

ActivoLEO
NORAD 15614·DEBRIS·🇺🇸 United States

Lanzado Mar 13, 1985 desde Vandenberg Space Force Base

Loading…

Próximos Pases (próximas 24 horas)

TLE

ActualizadoSource: Space-Track

Época: Sep 14, 2026, 03:48 UTC

1 15614U 85021D   26257.15843834  .00001024  00000-0  16331-3 0  9995
2 15614 108.2210 338.2140 0010123 124.1643 236.0479 14.78851471209831

Sigue ATLAS 41E DEB en tiempo real con AllMySat

Download on the App Store